Regional Weather Roundup
Issued by NWS

Home | Current Version | Previous Version | Graphics & Text | Print | Product List | Glossary On
Versions: 1 2 3 4 5 6 7 8 9 10 11 12 13 14 15 16 17 18 19 20 21 22 23 24 25 26 27 28 29 30 31 32 33 34 35 36 37 38 39 40 41 42 43 44 45 46 47 48 49 50
000
ASUS45 KBOU 230507
RWRCO

WEATHER ROUNDUP FOR COLORADO
NATIONAL WEATHER SERVICE DENVER/BOULDER CO
1100 PM MDT FRI AUG 22 2014

NOTE: "FAIR" INDICATES FEW OR NO CLOUDS BELOW 12000 FEET WITH NO
SIGNIFICANT WEATHER AND/OR OBSTRUCTIONS TO VISIBILITY.

COZ001>005-013-030-031-230600-
...NORTHWEST COLORADO...

CITY           SKY/WX    TMP DP  RH WIND       PRES   REMARKS
CRAIG          MOCLDY    55  51  86 SE5       30.07F
HAYDEN         MOCLDY    54  48  82 E7        30.10S
MEEKER         PTCLDY    57  51  80 S5        30.08F
MOUNT WERNER   NOT AVBL
STEAMBOAT SPGS CLOUDY    53  51  91 CALM      30.12S
WALDEN         CLOUDY    50  43  76 W14G20    30.18F
$$

COZ006>008-011-230600-
...WEST CENTRAL VALLEYS...

CITY           SKY/WX    TMP DP  RH WIND       PRES   REMARKS
GRAND JUNCTION PTCLDY    64  50  60 SE13      30.00S
MONTROSE       PTCLDY    58  51  78 SE8       30.11F
EAGLE          CLOUDY    61  48  63 SW6       30.13S
RIFLE          MOCLDY    59  53  80 NW6       30.05F
DELTA          RAIN      65  51  59 NE9       30.08R
NUCLA          MOCLDY    55  48  76 E5        30.15R
$$

COZ017>023-064>068-230600-
...SOUTHWEST COLORADO...

CITY           SKY/WX    TMP DP  RH WIND       PRES   REMARKS
DURANGO        CLOUDY    53  52  96 CALM      30.21S
CORTEZ         CLEAR     55  53  93 CALM      30.15S
PAGOSA SPRINGS   N/A     52  48  89 CALM      30.27S
TELLURIDE      CLOUDY    50  43  76 CALM      30.30F
WOLF CREEK PAS NOT AVBL
$$

COZ009-010-012-014-032>034-037-058>063-230600-
...CENTRAL COLORADO...

CITY           SKY/WX    TMP DP  RH WIND       PRES   REMARKS
ASPEN          CLOUDY    56  46  69 S8        30.18F
BUENA VISTA    MOCLDY    46  42  89 CALM      30.23F
COPPER MTN     CLOUDY    46  36  66 SW5       30.44S
BERTHOUD PASS  MOCLDY    37  37 100 W9        30.46F
COTTONWOOD PAS MOCLDY    50  45  81 CALM      30.33S
GUNNISON       CLOUDY    54  46  76 CALM      30.25S
KREMMLING      CLOUDY    54  46  76 W3        30.16F
LEADVILLE      CLOUDY    45  43  93 NE3       30.31F
MONARCH PASS   FOG       39  37  93 SW17      30.54S VSB<1/4
SALIDA         CLOUDY    54  48  80 S3        30.27F
SUNLIGHT       MOCLDY    45  41  87 CALM      30.35F
WILKERSON PASS NOT AVBL
$$

COZ069>075-230600-
...SAN LUIS VALLEY/SANGRE DE CRISTO MOUNTAINS...

CITY           SKY/WX    TMP DP  RH WIND       PRES   REMARKS
ALAMOSA        MOCLDY    51  49  92 E6        30.23F
LA VETA PASS   NOT AVBL
SAGUACHE       CLOUDY    52  50  93 S5        30.28S
$$

COZ035-036-038>040-230600-
...NORTHERN COLORADO FRONT RANGE...

CITY           SKY/WX    TMP DP  RH WIND       PRES   REMARKS
DENVER INTL AP CLOUDY    60  58  92 SE6       30.06F
DMNS CITY PARK   N/A     62  57  82 E2        30.06S
AURORA         NOT AVBL
FRONT RANGE AP CLOUDY    61  59  94 CALM      30.08F
ERIE MUNI ARPT CLOUDY    63  58  85 E6        30.06S
BOULDER MUN AP CLOUDY    63  59  88 NE5       30.06F
CENTENNIAL     MOCLDY    58  55  90 SE7       30.08F
BROOMFIELD     NOT AVBL
FORT COLLINS   CLOUDY    61  55  82 SE5       30.06F
LONGMONT       CLOUDY    64  59  83 CALM      30.07F
$$

COZ041-046-047-076>085-087-088-230600-
...PIKES PEAK/PALMER DIVIDE AND SOUTHERN FOOTHILLS...

CITY           SKY/WX    TMP DP  RH WIND       PRES   REMARKS
COLO. SPRINGS  PTCLDY    60  54  80 NE8       30.10F
A. F. ACADEMY  PTCLDY    58  53  86 N7        30.11F
ELLICOTT       PTCLDY    57  56  96 E10       30.09F
FALCON         PTCLDY    55  54  97 NE9       30.15F
FORT CARSON    PTCLDY    59  55  88 NE6       30.07F
LIMON          CLOUDY    59  58  96 W5        30.06R
MONUMENT HILL  CLOUDY    54  54 100 E9        30.14F FOG
TRINIDAD       MOCLDY    62  55  77 CALM      30.09S
$$

COZ042>045-048>051-090-091-230600-
...NORTHEAST COLORADO...

CITY           SKY/WX    TMP DP  RH WIND       PRES   REMARKS
GREELEY ARPT   CLOUDY    63  54  72 NW5       30.05S
AKRON          CLOUDY    60  59  96 E10       30.01R
BURLINGTON     LGT RAIN  65  62  90 NE16      29.92F
WRAY             N/A    N/A N/A N/A N3        29.96F
STERLING       CLOUDY    63  61  94 N3        29.96R
HOLYOKE        NOT AVBL
FORT MORGAN    CLOUDY    60  58  94 S7        30.03R
$$

COZ086-089-092>099-230600-
...SOUTHEAST COLORADO...

CITY           SKY/WX    TMP DP  RH WIND       PRES   REMARKS
PUEBLO         MOCLDY    65  52  62 CALM      30.01F
LA JUNTA       PTCLDY    66  62  87 S5        29.98F
LAMAR          MOCLDY    66  62  87 S5        29.95S
SPRINGFIELD      N/A     64  61  90 NW7       30.01F
$$


USA.gov is the U.S. government's official web portal to all federal, state and local government web resources and services.